Theta_e
325 329 329 339 344 347 347 347 347 348 348 348 349 349 349 349 349 349 349 349 349 349 349 349 349 349 349 350 349 349 350 349 349 349 349 348 348 348 349 349 349 349 349 350 350 350 350 350 349 350 349 350 350 349 349 349 349 349 349 349 347 346 345 344 344 343 344 346 348 348 349 352 354 354 354 354 354 353 352 351 351 347 346 348 353
326 328 329 329 345 346 347 347 347 347 348 347 348 347 348 348 349 348 349 348 348 349 348 348 348 349 349 348 348 348 349 348 348 349 348 348 348 348 348 348 348 348 348 349 349 349 349 349 350 349 348 350 349 349 349 349 348 348 348 347 345 342 341 341 342 342 344 344 345 345 345 349 352 354 355 354 354 353 351 351 351 346 344 353 354
326 326 327 330 344 346 346 347 347 347 347 348 347 348 348 348 348 348 348 347 347 347 347 347 348 347 348 348 348 348 348 348 348 347 348 348 347 347 348 347 347 347 348 348 348 348 348 348 347 348 348 348 348 348 348 347 346 345 344 343 340 338 338 338 339 340 343 342 343 342 342 342 347 354 352 354 353 352 351 351 351 351 349 354 350
325 326 325 330 341 344 346 346 346 346 346 347 347 347 347 347 347 347 346 346 346 346 347 347 347 347 348 348 347 347 347 347 347 347 347 346 347 346 347 347 347 347 347 348 347 346 347 346 347 346 344 343 344 343 342 342 341 340 339 338 337 335 335 335 335 336 339 340 340 338 338 335 336 352 352 351 351 352 351 351 351 352 353 352 351
325 325 325 328 333 339 345 346 345 345 345 345 346 347 346 347 346 346 346 346 346 346 346 346 346 347 346 346 346 345 345 346 346 345 344 344 344 344 345 346 346 346 346 346 346 346 346 346 344 343 340 339 339 339 339 338 338 337 337 336 336 334 332 332 331 331 334 335 336 335 332 334 335 346 349 351 349 352 351 350 350 350 349 348 348
324 324 325 326 326 333 341 344 345 344 344 344 345 345 345 346 346 346 346 346 346 346 346 346 346 345 346 345 345 344 344 343 343 343 342 342 342 342 342 343 344 345 345 345 344 346 344 342 341 339 336 335 334 335 335 335 335 335 334 334 334 333 332 330 328 327 329 328 329 329 330 332 334 337 348 348 349 350 350 348 347 347 348 349 349
323 322 324 325 325 330 340 341 345 344 343 343 343 343 344 344 344 344 344 344 344 344 344 344 344 344 343 343 342 343 343 342 342 341 340 340 340 340 340 340 342 343 342 343 342 341 340 338 336 335 334 332 331 332 333 333 332 332 332 332 331 330 329 328 325 324 323 319 319 323 325 329 333 334 345 349 348 349 348 347 348 348 350 350 350
321 322 322 324 324 331 338 340 342 343 342 342 341 342 342 341 341 341 342 342 342 342 342 342 342 342 342 341 341 341 340 340 339 339 338 338 337 337 337 338 339 339 339 339 338 337 336 334 333 332 331 330 330 331 331 330 330 329 329 328 328 327 327 327 324 322 318 310 314 317 320 326 329 330 341 348 348 349 348 348 348 349 349 350 348
321 321 322 322 322 333 337 340 341 341 341 340 340 340 340 340 340 340 340 340 342 341 342 341 341 340 340 339 340 339 339 338 337 336 335 335 335 335 335 335 336 336 335 335 335 334 332 331 330 330 329 329 329 328 327 327 327 326 326 326 327 326 326 325 323 319 309 308 309 312 316 323 325 327 337 349 348 348 348 347 348 349 349 348 348
319 319 319 319 321 332 336 339 339 339 339 339 339 339 338 338 338 337 336 339 340 339 339 339 339 338 338 338 338 337 335 335 334 333 333 333 333 333 333 333 333 333 333 332 332 331 330 328 327 328 328 328 326 325 325 325 325 325 325 325 324 323 323 322 319 314 308 307 308 311 317 330 323 326 339 349 347 350 347 344 345 346 347 347 347
318 317 317 318 318 332 336 336 337 337 338 338 338 338 338 337 337 336 336 336 336 336 336 335 335 335 335 335 335 334 333 332 332 331 332 331 330 329 330 330 330 330 330 329 329 328 328 328 327 327 327 326 324 324 324 323 324 324 323 322 321 321 321 319 313 307 307 307 309 313 317 328 324 328 345 347 345 347 346 344 344 347 347 347 347
317 315 315 316 324 332 335 336 336 335 336 336 337 337 337 337 336 336 336 336 336 336 335 335 334 334 334 333 333 332 332 331 330 330 329 328 328 327 327 327 327 327 327 327 327 327 327 327 327 327 326 324 323 323 322 322 322 322 321 320 320 318 318 316 307 305 305 306 309 315 314 320 323 332 345 346 346 345 345 345 344 346 346 347 347
315 316 315 315 318 331 334 335 335 335 335 335 336 336 336 335 336 335 335 335 336 334 334 334 333 333 333 332 331 331 330 329 330 328 328 328 326 325 325 325 325 325 326 326 326 327 327 327 326 325 324 323 323 322 321 321 321 319 319 318 318 317 314 313 304 303 305 306 309 310 310 316 320 334 341 345 346 346 345 345 344 344 344 345 346
314 315 315 317 316 326 331 333 334 334 334 334 335 334 334 334 334 334 334 334 333 332 332 332 332 332 331 331 330 330 329 328 327 326 326 326 326 326 325 325 325 325 325 325 326 326 327 327 326 324 322 322 322 321 321 320 319 318 317 316 316 315 311 306 306 301 304 305 307 308 307 314 320 332 336 339 340 341 340 340 340 341 341 342 343
315 314 314 316 318 319 326 330 333 333 333 333 333 333 333 333 333 333 333 333 332 332 332 332 331 331 330 330 330 328 327 326 326 325 325 326 326 325 325 325 325 325 324 325 324 323 323 323 323 322 321 321 320 320 319 318 317 316 315 314 313 313 310 300 301 300 302 307 304 306 306 311 326 331 333 334 336 335 335 335 335 335 336 336 338
314 313 313 314 315 315 321 326 329 329 332 333 333 333 332 332 332 332 332 332 332 331 331 331 330 330 329 328 327 327 326 325 324 324 324 324 324 324 324 324 324 324 324 324 322 321 322 321 320 319 319 319 319 318 317 316 315 314 313 312 311 311 309 304 299 299 300 303 303 305 305 312 325 329 330 332 332 333 332 333 333 333 333 333 334
312 312 313 313 312 313 316 318 323 327 328 328 330 330 331 331 331 331 331 331 331 331 330 329 329 328 328 327 326 325 324 324 323 323 324 324 324 323 323 323 324 324 324 323 321 321 320 319 318 318 318 318 318 317 316 315 314 313 311 311 310 309 308 304 298 298 299 305 303 303 305 313 322 327 329 330 330 331 331 331 331 331 332 332 332
309 310 313 312 311 311 314 314 317 321 319 324 326 328 330 330 330 330 330 330 329 328 327 327 327 326 325 324 323 323 323 323 323 323 323 323 322 321 321 323 323 322 321 321 320 319 318 317 316 316 315 315 315 315 314 313 312 311 309 309 308 307 306 303 296 298 299 304 300 304 305 318 322 325 327 328 329 329 329 329 329 329 329 329 329
306 308 310 310 311 309 312 312 313 313 315 316 317 323 326 328 329 328 328 328 327 326 326 324 323 322 321 319 319 320 321 321 320 320 320 320 320 320 320 321 321 321 320 319 318 317 316 315 314 313 312 312 313 313 312 310 310 309 308 307 305 304 302 299 295 296 298 298 300 298 306 317 321 324 326 327 327 327 327 326 327 327 327 327 328
305 307 308 309 309 309 309 309 310 311 311 312 314 315 322 323 325 326 326 326 326 326 325 324 321 320 319 318 316 312 314 314 316 314 317 318 317 316 319 319 319 319 319 317 316 316 315 314 312 311 309 309 309 309 309 309 308 307 306 305 303 300 295 294 294 295 295 298 301 296 312 316 319 322 324 325 325 325 325 325 325 326 326 326 327
305 305 307 308 307 308 308 308 308 308 309 309 311 312 316 320 321 322 323 324 324 324 323 320 316 315 313 311 308 302 303 304 303 304 310 307 313 315 316 317 318 317 317 316 315 314 313 313 311 309 308 306 304 304 305 306 306 305 304 302 299 293 294 293 293 296 295 296 298 298 311 314 317 320 323 323 323 323 323 323 324 325 325 326 326
303 304 304 306 307 307 308 307 307 306 307 308 309 309 310 317 312 314 314 318 319 317 313 308 310 304 309 303 298 300 298 298 301 307 304 306 309 312 314 315 315 314 315 314 313 312 311 310 310 308 306 304 301 292 293 299 302 302 301 299 292 292 292 292 292 292 294 294 297 303 310 313 315 318 321 322 322 322 322 323 323 324 324 325 325
301 302 304 304 306 306 306 307 306 305 305 305 307 307 307 307 307 309 310 313 312 308 304 304 299 299 298 296 298 297 297 298 299 302 303 308 307 310 311 312 312 312 312 312 311 310 309 308 307 305 303 300 292 290 290 290 290 297 296 291 290 291 291 291 291 291 292 295 292 305 308 311 314 316 319 320 321 321 321 322 322 323 324 325 325
303 303 304 304 304 305 306 306 305 304 304 304 305 305 305 304 304 305 306 306 305 303 301 298 297 296 296 296 295 296 297 298 308 308 306 301 304 309 307 307 306 305 305 303 308 308 307 305 303 301 298 294 290 290 290 290 290 290 290 289 289 290 290 291 289 290 290 294 294 304 307 310 313 315 317 319 320 320 321 321 322 323 324 324 324
303 301 299 301 303 304 305 305 304 303 303 303 304 304 303 302 302 302 302 301 300 299 298 296 296 295 295 295 295 296 297 298 296 295 293 292 291 291 291 291 291 292 297 289 291 293 291 290 291 293 289 291 289 289 290 289 290 290 289 289 289 289 289 289 289 289 290 290 294 302 304 308 311 313 316 318 319 320 320 320 322 323 323 323 324
297 298 299 300 301 303 304 304 302 302 302 302 303 304 302 301 300 300 299 298 298 297 296 296 295 295 294 295 296 295 295 293 292 291 291 290 290 289 289 289 289 290 292 288 288 288 288 289 289 289 289 289 289 289 290 290 289 288 288 288 289 288 288 288 288 288 289 289 292 300 303 305 309 312 314 316 318 319 319 320 321 322 321 322 322
297 299 299 299 299 301 302 302 301 301 300 301 301 302 300 300 299 298 298 297 296 296 296 295 295 295 294 296 295 294 292 291 291 290 290 289 289 288 288 288 288 288 290 288 288 288 288 288 288 288 288 288 288 288 288 288 288 288 287 287 288 288 287 287 287 287 288 289 292 297 301 303 307 309 312 314 317 318 319 319 320 320 320 321 322
296 297 297 298 298 299 300 300 301 300 300 299 300 300 299 298 297 299 298 298 296 296 295 295 295 295 295 295 295 293 292 291 291 290 289 289 289 288 288 287 287 287 289 288 288 287 287 287 287 287 287 287 288 287 287 287 287 286 287 287 287 287 287 286 287 287 287 287 289 294 299 301 304 307 310 313 315 316 318 318 319 320 320 320 321
296 296 297 297 298 298 298 299 300 299 299 298 298 299 298 296 296 297 296 299 296 296 296 295 295 295 295 295 294 292 291 291 290 290 289 289 288 288 287 287 288 287 289 287 287 287 287 287 287 287 286 287 286 288 287 287 286 286 286 286 286 286 286 286 286 286 286 287 287 291 297 300 302 305 307 311 313 314 316 317 317 318 319 319 319
297 297 296 297 297 298 297 297 299 299 298 297 297 297 297 296 295 296 295 298 295 295 295 294 294 294 294 294 294 292 291 291 290 289 289 288 288 287 287 287 287 287 287 288 287 286 286 286 286 286 287 286 286 289 286 286 286 286 286 286 286 286 285 286 286 286 286 286 287 289 294 297 300 304 306 308 311 312 314 315 316 317 318 318 318
297 297 297 297 297 297 297 297 298 299 297 296 296 296 296 295 295 295 295 296 295 295 295 294 293 294 294 293 293 293 291 290 290 289 288 288 287 287 286 286 286 286 287 287 288 287 286 286 287 286 286 286 286 286 286 285 284 285 286 285 285 285 285 286 286 286 286 286 286 287 289 294 298 301 304 307 308 310 311 312 314 315 316 317 317
296 297 297 297 296 297 297 298 298 298 298 296 295 294 295 295 294 294 295 295 295 294 294 294 294 293 293 293 292 292 292 289 290 289 289 288 287 286 286 286 286 286 287 287 287 286 287 286 286 286 286 285 285 285 286 284 284 285 285 284 285 285 285 285 285 286 286 286 286 286 287 290 294 298 301 304 307 309 310 310 312 313 315 315 315
298 298 297 296 296 296 297 297 298 298 298 297 295 294 294 294 294 294 295 296 294 294 294 293 293 293 293 293 292 291 292 290 289 289 290 287 286 286 285 287 286 287 286 286 287 286 286 286 287 286 285 284 285 285 286 284 284 284 284 284 285 285 285 285 285 285 285 285 285 285 286 288 288 294 297 300 303 307 309 308 308 309 313 312 312
298 298 296 296 297 297 298 297 297 298 298 298 296 294 294 295 294 294 295 295 294 293 294 293 293 292 292 292 291 291 291 290 289 288 288 287 286 286 285 285 285 286 287 287 285 285 285 286 286 286 289 285 284 284 283 283 283 283 283 284 284 284 284 285 285 285 285 285 285 285 286 286 287 288 291 297 300 303 306 306 306 308 309 308 309
298 296 296 297 297 296 297 297 298 297 298 298 297 295 294 295 294 294 294 295 294 293 293 292 292 292 291 292 291 291 291 290 289 289 288 287 286 285 285 285 286 286 285 285 285 285 286 285 284 283 283 283 283 286 283 283 283 283 283 284 284 284 284 284 284 284 284 284 285 285 286 286 287 288 292 290 295 298 302 304 305 306 305 305 306
298 298 297 297 296 296 297 296 297 297 297 298 297 296 295 295 294 295 294 294 294 293 293 292 292 291 291 291 291 291 290 290 289 289 288 287 287 286 285 285 286 286 285 284 285 285 285 285 284 283 283 283 284 282 283 282 283 283 283 283 283 285 284 283 284 284 285 285 285 285 286 287 288 290 294 290 291 293 298 301 302 302 303 304 305
299 299 297 296 296 295 296 296 296 296 297 297 297 296 295 294 294 294 294 294 294 293 292 291 291 291 290 290 290 291 290 290 289 288 288 287 286 285 284 285 286 285 284 284 284 285 284 285 284 285 282 282 282 282 282 282 283 282 283 282 283 284 283 283 284 285 286 284 284 285 286 287 290 292 288 289 289 289 293 297 299 299 299 302 304
299 299 298 297 296 296 296 296 296 296 297 297 296 295 294 294 294 293 294 293 293 293 292 291 290 291 290 290 290 291 290 289 289 288 288 287 286 285 284 285 285 284 284 284 284 285 283 283 283 283 282 282 281 281 282 282 283 283 282 282 282 282 283 283 284 288 283 284 284 285 286 285 286 286 286 286 286 286 287 290 294 294 295 299 302
298 298 298 297 296 295 295 296 296 296 296 296 295 294 293 292 291 291 291 292 291 290 291 291 291 290 290 290 290 290 290 289 288 288 287 287 286 285 285 285 285 284 284 284 283 283 283 282 283 282 283 282 282 282 281 282 282 282 282 282 282 282 282 284 284 282 283 283 285 287 285 284 283 284 285 285 285 285 285 285 285 285 287 296 300
298 298 297 296 295 294 294 295 295 295 295 295 294 293 292 292 291 289 289 291 290 290 290 291 291 290 290 290 290 290 289 289 288 287 287 287 285 285 284 284 284 284 283 283 283 282 282 282 282 283 283 282 282 282 281 282 281 280 282 282 281 281 281 284 282 282 283 282 282 283 283 284 283 283 284 284 284 284 285 285 286 285 287 290 296
297 297 296 295 295 295 294 294 295 295 295 294 293 292 291 290 290 291 291 291 291 290 290 290 290 290 290 290 290 290 289 288 288 287 286 287 286 285 284 284 284 284 284 284 283 282 282 283 284 283 281 279 280 280 281 280 279 278 279 280 280 281 285 284 282 282 282 282 282 282 282 283 283 283 283 284 283 285 285 285 285 285 286 285 287
295 296 296 295 295 294 294 294 294 294 294 294 293 293 293 292 292 291 292 292 291 290 290 290 290 291 290 289 290 289 288 288 288 287 286 286 285 284 284 284 284 283 283 283 281 284 283 282 283 280 280 279 279 280 281 279 279 278 278 279 279 280 284 281 282 282 282 282 282 282 282 283 283 283 283 283 284 284 285 285 285 285 285 285 286
296 296 296 296 294 294 294 294 294 294 294 294 294 293 293 293 293 292 292 291 291 291 290 290 290 290 289 289 289 289 288 287 287 287 286 286 285 285 284 284 284 284 283 282 282 282 282 282 281 281 279 280 281 282 280 279 277 278 278 278 276 277 281 279 279 281 281 282 281 281 283 282 282 282 283 283 283 283 284 284 284 284 285 285 285
295 295 295 294 294 294 293 294 294 294 294 294 294 294 293 292 290 289 289 289 288 289 288 288 288 288 288 288 288 288 288 287 287 286 286 285 285 285 284 283 283 284 283 282 282 282 282 281 280 281 281 279 278 279 281 279 278 278 277 277 276 277 276 277 276 279 279 280 281 280 281 282 281 282 283 282 282 283 283 283 283 283 284 285 285
295 295 295 294 294 293 294 294 294 293 294 294 294 293 291 289 288 288 288 286 287 287 286 285 288 288 288 287 288 288 288 287 287 286 286 285 285 284 284 283 283 283 283 282 282 282 282 282 281 281 279 279 278 277 280 280 279 281 278 276 275 277 276 276 276 276 277 279 279 280 284 282 280 282 281 281 281 281 282 282 282 282 283 283 283
294 295 295 295 294 294 293 293 293 293 293 293 293 292 291 290 288 288 287 287 286 286 287 288 287 287 288 288 287 288 288 287 286 286 286 285 284 284 284 283 283 283 283 282 282 281 281 281 281 281 279 279 279 278 277 281 280 281 279 277 277 276 275 275 276 275 277 279 278 280 280 280 280 280 280 280 280 281 282 282 281 282 282 282 282
294 294 294 294 293 293 293 293 293 292 293 292 292 292 291 290 290 290 290 289 289 288 289 289 288 288 288 287 288 287 287 287 286 286 285 285 284 284 283 283 283 283 283 281 281 281 281 281 281 280 279 281 279 278 278 278 278 279 279 278 280 279 278 276 274 275 275 276 276 277 278 278 279 279 279 280 280 280 280 281 281 281 281 281 281
293 292 293 292 292 292 292 292 292 292 292 292 292 292 291 290 290 290 290 290 290 289 289 288 288 288 287 287 287 287 287 287 286 285 285 285 284 283 283 283 283 282 283 281 281 281 281 281 281 280 280 281 279 279 278 278 278 278 279 278 279 278 278 277 277 276 275 273 275 276 277 277 277 278 280 279 279 279 279 279 280 280 280 281 281
292 292 293 293 292 292 291 291 292 291 291 291 291 291 291 290 290 290 290 290 290 288 287 288 287 287 287 287 286 286 286 286 286 285 285 284 285 283 283 282 282 282 283 281 280 280 280 281 280 280 280 280 278 278 279 278 278 278 278 276 277 276 276 276 277 277 276 274 274 275 275 276 277 279 278 278 278 279 279 279 280 281 282 281 280
292 292 291 291 291 290 290 290 290 291 291 291 291 291 291 291 290 290 290 289 288 286 286 286 286 286 286 286 286 286 286 286 285 285 284 284 284 283 283 282 282 282 283 281 280 280 280 280 280 280 280 279 279 279 278 278 278 278 278 278 276 276 276 275 275 275 276 275 275 274 275 275 275 276 277 279 278 278 279 279 279 279 279 279 279
288 290 290 290 290 290 290 290 290 290 290 290 290 290 290 290 290 290 289 289 288 286 285 285 285 285 286 286 286 286 286 286 285 285 284 284 284 283 283 282 282 282 283 280 280 280 280 280 280 279 279 279 279 279 281 278 278 278 277 278 278 278 276 275 275 275 274 274 274 274 275 275 275 275 276 278 279 279 279 279 278 278 279 279 279
Wind_Speed
6 7 5 6 5 10 9 10 11 12 12 12 11 11 11 10 10 9 10 9 9 9 9 9 9 9 9 9 9 9 9 9 9 9 8 8 8 8 7 7 7 7 8 8 7 7 8 8 8 9 9 10 10 9 10 10 10 10 11 12 12 12 12 13 13 13 13 12 12 11 10 9 8 6 6 7 8 8 6 6 6 4 3 3 7
12 7 5 5 9 11 11 10 11 12 12 12 12 11 10 10 10 10 9 9 9 10 9 9 9 9 10 10 9 9 9 9 9 10 10 9 9 9 8 8 7 7 8 8 9 8 9 9 9 9 9 11 11 11 11 11 11 12 13 13 11 11 12 14 14 13 13 13 12 11 10 9 9 7 6 7 8 8 6 6 6 4 3 7 7
7 5 4 5 9 13 13 12 11 11 12 12 11 11 11 10 10 10 10 10 9 9 9 9 9 9 9 9 10 10 10 10 10 11 11 11 11 10 9 9 8 7 8 9 9 10 10 10 12 13 14 15 14 14 14 14 14 13 12 11 11 12 12 13 14 14 13 13 12 12 10 9 9 9 6 7 7 7 6 6 5 6 6 10 8
8 6 4 4 7 9 12 14 13 13 12 11 11 11 11 11 11 10 10 10 9 9 9 9 9 10 10 11 11 11 11 11 11 11 11 11 11 12 12 11 10 9 10 9 10 11 12 13 16 15 15 14 14 14 13 13 12 12 12 12 13 13 13 14 15 14 14 13 13 11 6 7 7 7 6 7 7 7 5 5 6 8 10 12 12
8 5 4 4 5 5 9 11 14 13 12 14 13 12 12 12 10 10 10 9 10 9 10 10 10 10 11 11 11 11 10 11 12 12 11 9 9 10 10 11 11 11 10 10 10 12 13 16 15 15 14 13 13 13 12 13 13 13 13 13 14 14 14 14 15 15 14 12 12 8 6 7 7 9 8 6 7 6 5 5 7 8 8 9 10
7 5 4 4 4 5 6 10 14 14 12 14 14 13 13 12 11 11 10 11 10 10 10 10 9 9 10 10 10 10 10 11 11 10 9 9 9 9 9 9 11 11 12 12 11 12 15 15 14 14 14 13 13 13 14 14 14 14 14 14 15 15 15 15 15 14 14 12 11 6 6 6 6 6 9 5 7 5 4 7 8 8 8 10 9
7 4 5 5 4 5 9 9 15 14 14 14 14 14 13 12 11 11 10 10 10 10 11 9 9 9 9 9 9 10 10 11 10 10 8 9 10 9 9 9 10 13 13 12 13 15 15 14 14 13 13 13 13 13 14 14 15 15 15 15 15 15 15 15 15 14 13 9 6 6 6 6 6 5 12 8 3 5 7 8 8 8 8 9 10
5 4 4 5 4 6 8 10 12 16 15 15 15 13 13 13 12 12 12 10 10 10 9 9 9 8 8 8 9 9 9 10 9 9 8 9 9 9 10 9 9 9 10 12 13 14 14 13 12 12 12 12 13 13 14 14 14 14 15 15 15 15 15 15 14 13 12 7 6 5 6 6 6 5 10 12 7 5 7 8 9 8 8 9 7
6 5 5 5 4 7 8 10 12 14 15 13 12 14 13 12 13 12 11 11 11 10 10 10 10 9 9 9 9 9 9 9 9 8 9 9 10 11 11 11 11 11 11 12 13 13 12 12 11 11 11 12 13 13 13 14 14 14 14 14 14 15 15 15 14 13 8 6 6 6 6 6 5 5 9 13 7 3 6 6 6 8 8 8 5
5 4 4 4 5 7 9 10 14 15 14 15 14 14 14 13 13 13 13 13 12 12 11 11 10 10 10 10 9 9 8 9 9 9 9 10 11 11 11 12 11 11 11 11 11 12 11 11 10 11 11 12 12 12 13 13 14 14 14 15 15 16 15 14 13 10 7 6 6 6 7 10 4 5 8 12 11 5 5 4 3 4 4 7 8
5 5 4 4 4 7 11 15 15 14 14 15 15 15 14 14 14 13 12 12 12 12 12 12 11 11 11 10 10 10 10 10 10 10 10 11 11 11 11 11 11 11 11 11 11 11 11 11 11 11 12 12 12 12 13 13 14 14 15 15 16 16 15 15 12 6 6 7 6 7 8 12 6 5 9 10 9 7 4 3 3 3 6 7 9
6 4 4 3 5 8 11 13 13 15 15 15 15 14 14 14 14 14 14 14 13 12 12 12 11 10 11 11 11 11 11 11 11 11 11 11 11 12 11 11 11 11 11 11 11 11 11 11 12 12 12 12 12 12 12 13 13 14 14 15 15 15 15 14 8 6 6 6 6 7 7 7 8 9 14 11 10 7 5 5 8 9 8 9 9
7 6 4 4 4 7 9 14 12 15 15 16 15 15 15 15 15 15 15 14 14 13 13 13 12 12 12 12 12 12 12 12 12 12 12 12 12 12 11 11 11 11 11 11 11 11 11 12 12 12 12 12 13 13 13 13 13 13 14 14 15 15 13 14 6 7 6 6 6 7 7 6 7 13 14 14 13 13 13 13 12 12 13 12 12
8 7 6 5 4 6 8 10 10 13 15 15 15 15 15 15 15 15 15 15 14 14 14 14 13 13 13 13 13 13 13 13 12 13 13 13 13 13 12 12 12 12 12 11 12 11 12 12 12 12 13 13 13 13 13 13 13 14 14 15 15 14 14 9 8 6 6 7 6 7 6 6 7 14 14 14 14 14 14 14 14 14 14 15 14
9 7 6 5 5 5 8 9 9 11 13 15 15 15 15 15 15 15 16 15 15 15 15 14 14 14 14 14 14 13 13 13 13 13 13 13 13 13 13 12 12 12 12 12 12 12 12 12 12 12 12 13 13 13 13 13 14 14 15 15 14 14 13 6 6 5 6 6 6 6 7 6 13 14 14 14 15 15 15 14 15 15 15 15 15
7 6 4 4 4 4 4 7 9 10 11 13 14 14 16 16 16 16 16 16 16 16 16 15 15 15 15 15 15 15 14 14 14 13 13 13 13 13 12 12 12 12 12 12 12 12 12 12 12 12 12 12 13 13 13 13 14 14 15 15 14 14 13 7 5 6 5 6 6 5 6 6 15 14 14 15 15 14 15 15 16 15 15 15 15
5 5 6 5 4 4 5 4 5 9 10 11 11 12 14 16 17 17 16 17 16 16 16 16 15 15 15 15 15 15 15 14 14 13 13 13 13 13 12 12 12 12 12 12 12 12 12 12 12 12 12 12 13 13 13 13 14 14 14 14 14 14 13 9 6 5 6 6 5 6 6 6 12 14 14 14 14 14 14 14 15 15 15 15 15
4 5 6 5 5 4 4 4 4 5 5 7 9 11 12 16 16 16 16 16 15 16 15 16 15 16 16 15 15 15 15 14 14 14 14 14 13 13 13 13 13 12 12 12 12 12 12 12 12 12 12 13 13 13 13 13 13 14 14 14 13 13 12 10 6 5 6 6 6 5 6 10 15 13 14 14 13 14 14 14 14 14 14 14 14
4 4 4 5 5 4 4 4 4 4 5 5 5 7 11 12 12 13 14 15 15 15 15 15 15 15 15 15 14 13 13 14 13 14 14 14 13 12 13 13 13 13 13 13 13 12 12 12 13 13 13 13 13 13 13 13 13 13 14 13 12 11 11 7 5 6 6 5 6 6 6 14 13 13 13 13 13 14 14 15 15 15 14 14 13
4 5 5 5 5 5 4 5 4 4 4 5 5 5 8 11 11 12 12 13 14 14 14 13 12 12 12 11 10 8 9 8 11 8 12 13 10 8 12 13 14 14 13 13 13 13 13 13 13 13 13 13 13 13 13 13 13 13 13 12 11 9 6 5 5 5 6 6 6 5 9 14 14 12 12 13 13 13 14 14 14 13 13 13 13
5 6 7 7 6 6 6 5 5 5 5 5 5 5 5 10 9 11 12 12 12 12 13 11 10 10 9 10 9 6 6 6 6 5 8 5 9 11 12 13 13 13 13 13 13 13 13 13 13 13 13 13 12 12 13 12 12 12 12 11 9 6 5 5 5 4 5 5 6 6 13 13 13 12 11 11 12 12 12 12 13 13 12 12 12
8 7 7 7 8 7 8 7 6 6 5 6 5 4 4 7 5 6 6 8 9 10 8 6 7 5 9 7 5 5 6 5 5 6 5 5 7 10 11 13 13 13 12 13 13 13 13 13 13 13 13 12 11 6 6 8 11 12 11 10 6 5 5 5 5 5 4 5 6 8 14 13 12 12 11 11 11 11 11 11 12 12 12 12 12
8 9 9 10 9 7 6 8 8 7 6 5 5 5 4 4 5 5 5 6 6 6 6 5 5 5 5 5 4 5 5 4 4 5 5 8 8 10 12 12 12 12 12 13 12 12 12 12 13 12 11 10 6 5 4 4 5 8 7 6 5 5 5 5 5 5 5 4 4 10 13 13 13 12 11 11 11 11 11 11 11 11 11 11 11
13 12 11 7 8 9 10 9 8 8 7 6 5 6 5 4 5 5 6 6 5 6 5 5 5 5 5 5 5 4 5 5 6 9 7 5 7 9 11 11 11 11 12 8 10 10 11 12 12 10 7 4 4 4 4 4 4 5 5 5 5 5 5 5 5 5 5 5 5 13 13 13 13 13 11 11 11 11 11 11 11 11 11 11 12
11 5 4 9 11 11 9 9 8 8 7 7 6 7 6 5 5 5 6 6 6 6 6 6 5 5 5 5 5 4 5 6 5 5 6 5 5 5 5 6 5 5 7 6 6 5 6 5 4 4 3 3 4 3 3 4 4 4 5 5 5 5 5 5 5 5 5 6 6 14 14 14 14 13 12 11 11 11 11 11 11 12 12 12 12
5 8 12 10 12 11 10 8 8 8 9 8 8 7 7 7 6 6 6 6 7 7 6 6 6 5 5 5 5 6 5 6 5 5 5 6 6 6 6 6 5 5 4 6 5 4 3 3 3 3 2 2 3 3 3 3 4 4 4 4 5 4 5 5 5 5 5 5 6 15 14 14 14 13 13 12 11 11 11 11 11 12 12 13 13
10 13 10 9 9 9 10 9 10 9 9 7 6 6 7 7 6 6 7 7 6 7 7 7 7 6 5 6 7 6 6 6 6 5 6 5 6 6 5 5 5 5 3 6 4 3 3 5 4 3 3 3 3 3 3 3 3 3 3 3 3 4 5 5 5 6 6 6 6 14 14 14 14 13 13 12 11 11 11 11 11 12 12 12 12
5 9 9 9 10 14 11 10 10 10 9 8 8 7 7 7 7 6 7 7 8 7 7 7 7 7 6 6 5 6 7 7 6 6 6 5 6 5 5 5 5 5 4 4 5 4 4 4 4 3 3 3 3 3 3 3 3 3 3 3 3 4 4 4 4 4 5 6 5 9 14 14 13 13 12 11 11 10 10 11 11 11 11 12 13
12 11 10 10 12 12 12 13 11 12 9 9 9 8 7 7 7 7 8 8 8 8 7 7 7 7 6 6 6 7 6 6 7 6 6 6 6 5 6 6 5 6 4 4 4 5 4 4 3 3 3 3 4 4 3 3 3 3 4 3 3 4 4 4 4 4 4 5 5 7 12 13 13 13 12 11 10 10 11 10 10 10 11 12 12
17 12 11 12 10 11 14 16 15 13 11 9 9 8 8 9 9 9 8 8 8 7 6 7 7 7 7 6 6 6 7 8 7 6 7 7 6 5 5 5 6 4 5 5 4 5 5 4 3 3 4 4 5 3 3 4 4 3 4 3 3 4 3 4 4 4 3 4 5 5 10 12 12 12 12 11 10 10 10 10 10 10 10 11 11
10 13 13 11 10 11 14 14 13 11 10 11 10 10 9 10 9 8 7 8 8 7 7 7 7 7 7 6 6 6 6 6 6 7 5 6 6 6 6 5 6 5 5 5 3 4 4 4 4 4 4 5 5 3 5 4 4 4 4 4 4 4 4 4 4 4 4 5 4 4 5 10 11 11 11 11 10 9 10 10 11 11 11 11 11
12 17 14 9 10 14 14 14 14 12 12 12 10 10 10 10 9 8 8 8 7 7 7 7 7 7 6 7 6 6 6 6 6 6 6 7 6 6 5 6 6 4 4 4 4 3 4 3 4 4 3 4 5 5 4 5 4 5 4 4 4 5 5 5 4 4 4 5 5 4 4 5 8 11 11 12 12 11 11 11 11 11 11 11 12
14 14 10 10 15 14 14 14 13 12 14 14 12 11 9 9 9 9 8 7 7 7 8 8 7 7 6 7 6 6 6 7 7 7 6 6 6 6 6 5 5 5 4 4 4 4 4 4 4 3 5 4 5 5 3 4 5 5 4 4 5 5 4 4 4 4 5 5 5 5 5 4 4 8 10 11 11 12 12 12 12 12 13 12 13
12 8 9 14 13 9 10 10 13 15 16 13 11 10 10 9 8 7 7 7 7 8 8 7 7 7 7 7 7 6 6 6 7 6 6 6 6 6 6 6 6 5 5 5 6 4 5 5 4 5 3 4 4 3 4 5 4 3 4 4 4 4 4 5 4 4 4 5 5 5 5 5 5 5 5 8 10 12 13 13 12 12 13 13 13
8 9 16 20 13 12 10 11 14 15 14 14 13 12 10 9 9 8 8 8 7 8 7 6 6 7 7 7 7 7 7 7 7 8 7 7 7 6 6 6 6 4 5 5 5 5 5 5 5 6 3 4 3 3 3 4 4 6 5 4 5 5 4 5 4 5 5 5 5 4 5 5 5 4 4 4 6 9 12 13 13 13 14 14 14
16 17 16 10 13 14 14 13 14 16 16 16 14 12 12 10 9 8 7 7 7 8 7 7 7 6 7 7 7 7 7 8 8 7 7 7 7 7 6 5 5 5 5 4 4 5 5 4 3 4 6 3 4 3 3 3 3 4 4 4 4 4 4 4 5 5 4 5 5 5 5 5 5 5 5 5 5 6 12 12 13 14 14 14 14
18 15 14 13 14 14 15 16 17 19 17 16 14 12 11 10 10 10 9 8 8 8 7 6 6 7 7 7 8 8 8 8 8 8 7 8 7 6 5 5 4 5 5 4 4 4 5 5 3 1 3 5 3 2 1 2 2 3 3 3 3 3 4 4 4 4 4 4 4 5 5 5 4 5 6 6 6 6 8 12 11 12 13 15 16
13 15 15 16 18 16 16 17 15 15 14 14 14 12 10 9 8 8 7 9 8 7 6 7 7 8 7 8 8 8 8 8 8 8 7 6 6 6 5 6 5 5 5 5 5 4 4 5 5 2 3 4 3 3 1 0 1 2 3 3 3 3 3 3 2 2 3 4 5 4 4 3 5 6 6 5 5 6 5 7 10 11 13 16 17
12 14 13 13 10 11 12 14 13 14 13 12 11 9 8 6 5 6 6 7 6 6 7 7 8 7 8 8 8 8 8 8 9 8 8 7 7 6 6 6 5 6 6 5 5 4 4 3 5 4 2 3 4 3 1 0 0 1 3 3 2 3 1 1 2 2 3 2 2 3 3 6 5 5 5 5 5 5 5 6 7 7 9 16 17
11 11 12 12 12 11 10 10 12 12 10 10 9 9 8 9 10 6 6 7 7 7 7 9 7 9 9 9 9 9 8 9 9 8 8 8 8 7 7 6 6 6 7 7 6 6 7 6 5 6 6 3 2 1 0 1 1 4 3 4 3 3 3 2 3 3 3 4 4 4 6 4 5 4 4 5 4 4 6 7 7 7 7 10 15
11 11 13 14 15 16 15 17 15 14 14 13 13 13 13 9 7 11 13 11 11 10 9 9 10 9 10 10 10 9 9 9 8 8 9 8 7 7 7 6 6 7 7 8 7 6 5 6 6 3 4 3 2 3 1 1 3 2 3 4 5 3 3 2 4 3 5 3 4 6 5 5 5 5 5 4 5 7 7 7 7 7 7 7 8
12 13 16 18 18 16 17 16 12 14 15 16 15 14 14 16 16 16 14 13 12 12 12 11 11 9 10 10 9 8 9 9 9 8 8 8 8 8 8 8 8 7 5 4 4 4 5 5 6 4 2 3 1 3 3 1 5 2 2 4 6 5 3 3 2 0 3 3 3 5 4 5 6 5 6 6 6 6 6 6 6 6 6 6 6
15 17 18 15 13 14 14 13 14 15 15 15 13 15 13 11 12 10 12 9 7 7 6 7 7 9 9 9 9 9 9 9 9 9 8 8 8 8 8 7 7 7 7 7 6 6 6 7 5 6 5 3 2 1 3 2 3 2 1 3 3 3 2 4 2 1 1 2 2 3 2 5 5 4 4 5 6 6 5 6 6 6 6 6 5
9 9 10 14 13 13 12 14 14 14 14 15 15 13 11 7 5 3 4 4 5 4 4 5 6 6 10 9 8 10 10 10 9 9 8 8 8 9 7 7 8 7 7 8 8 8 7 6 4 4 7 4 1 1 2 3 3 5 2 2 1 1 1 1 4 6 2 2 3 1 1 3 3 4 4 5 4 4 5 5 6 6 5 5 5
12 14 14 14 12 17 17 17 15 15 14 14 14 10 9 7 6 6 6 6 5 5 5 6 10 10 7 9 11 9 10 10 10 10 9 9 8 8 8 8 8 7 7 7 8 9 8 7 7 7 5 8 4 1 0 1 1 1 5 4 2 1 2 1 2 5 3 1 1 1 1 2 2 3 3 4 3 3 3 4 5 5 4 4 4
13 14 12 14 13 12 12 12 11 11 12 13 14 12 12 13 12 11 10 9 8 9 14 17 13 13 14 6 6 10 10 9 9 10 9 8 9 8 8 8 8 8 7 7 6 5 6 8 8 7 5 3 7 5 2 0 2 2 2 1 2 2 5 2 1 1 4 1 3 1 1 1 0 0 2 3 4 3 3 4 4 5 4 3 3
14 7 8 9 10 9 11 13 12 12 11 12 14 12 11 11 15 16 15 16 16 14 11 7 10 8 7 10 10 8 9 10 9 9 9 8 8 8 8 8 7 7 6 6 7 8 7 7 5 5 5 6 6 5 8 5 2 2 3 3 5 4 5 6 3 2 3 4 1 1 2 3 1 1 3 4 4 3 3 3 5 5 4 3 3
7 7 8 8 12 13 14 15 12 12 12 12 14 14 14 14 14 13 13 13 15 14 11 8 7 8 9 10 9 9 9 10 10 10 10 9 9 8 8 8 8 7 7 8 8 6 5 4 4 4 4 6 7 9 7 7 7 4 2 4 5 4 4 5 3 5 3 1 6 2 2 3 1 4 5 5 3 3 3 3 5 5 4 2 2
8 11 12 12 11 11 12 12 12 12 12 15 15 15 14 15 16 14 14 12 11 7 7 7 8 9 11 8 9 9 10 10 10 11 10 10 9 10 9 8 8 8 8 7 6 6 8 8 7 6 7 6 4 4 8 8 6 8 7 2 5 4 4 2 3 3 4 3 5 3 2 3 4 6 6 4 3 3 2 5 6 5 3 3 3
7 7 6 8 9 9 12 13 13 11 11 14 15 15 15 13 14 14 17 13 9 6 8 9 9 10 12 11 10 10 10 10 10 10 11 11 11 10 10 11 10 9 8 8 6 7 7 7 7 7 6 7 4 6 7 7 6 6 7 8 6 4 3 2 2 3 1 3 6 4 1 2 8 3 0 8 4 3 4 5 6 5 4 3 3
5 6 8 8 9 11 12 14 14 11 12 15 15 17 15 14 15 16 16 14 12 10 9 10 9 10 12 12 12 12 10 11 10 10 11 11 11 11 11 10 9 9 9 8 9 9 8 7 6 5 6 8 6 6 4 4 6 7 7 8 10 10 9 7 8 6 5 3 2 5 2 3 3 11 2 0 6 9 6 6 5 5 3 4 3
Wind_Direction
218 172 185 183 206 151 150 151 151 154 158 160 163 159 157 156 151 149 148 150 149 146 145 143 143 142 140 137 132 129 126 123 117 109 99 99 97 93 91 88 89 86 86 88 84 81 83 91 88 80 78 75 70 73 68 64 60 58 54 45 33 21 11 5 11 9 5 5 8 13 12 12 9 26 56 68 67 65 54 40 37 20 7 15 41
171 184 172 182 171 147 148 148 146 149 153 153 154 155 155 152 149 147 150 149 148 144 144 144 142 143 142 136 132 128 125 117 113 108 102 96 94 94 91 85 80 85 88 88 91 87 80 77 73 68 69 69 61 59 63 59 55 52 43 38 29 20 12 5 8 10 8 7 7 8 7 12 11 20 55 65 68 65 52 40 34 24 342 23 33
143 160 173 183 171 156 150 148 144 144 146 147 147 146 147 144 145 145 147 148 146 145 141 140 141 141 139 135 126 124 114 110 106 100 93 88 82 77 80 82 80 82 92 89 85 88 79 73 70 63 55 56 53 51 49 51 45 42 41 35 29 24 19 12 9 12 11 8 8 7 8 4 0 6 47 70 73 66 52 44 29 23 7 21 27
144 166 166 186 169 164 157 154 149 143 137 134 136 139 139 139 141 143 144 146 142 140 139 138 134 127 120 114 111 99 102 99 92 85 84 83 80 74 68 66 70 70 79 87 87 83 77 68 61 55 48 47 46 47 46 47 47 43 37 33 27 24 22 18 12 13 13 10 8 11 12 2 350 9 30 62 74 67 59 44 35 40 32 21 20
150 164 165 158 155 162 169 155 154 144 144 147 139 141 140 138 138 135 136 135 134 131 127 125 124 123 118 112 106 98 90 84 81 83 82 80 79 77 75 70 66 68 68 73 78 76 73 64 60 55 51 47 45 44 43 42 40 37 32 28 24 21 20 18 14 11 13 14 12 14 5 3 360 343 10 47 61 58 51 47 44 39 37 31 22
156 164 160 153 153 172 165 167 153 153 156 154 149 152 151 144 141 136 137 133 128 129 126 128 122 117 117 114 109 99 92 85 82 85 92 90 85 78 69 69 68 67 68 66 67 74 70 61 56 53 48 43 40 38 36 34 34 31 27 25 22 19 17 15 13 11 12 16 15 11 5 2 354 341 337 22 34 57 45 49 44 38 32 30 33
155 161 157 158 164 177 170 183 162 162 169 168 159 162 157 153 150 150 145 144 141 137 134 129 127 124 117 114 113 106 101 96 92 94 100 94 90 85 84 82 77 71 69 64 59 57 59 60 53 50 47 42 39 37 37 36 32 28 25 22 19 18 15 13 11 11 15 20 12 6 1 357 354 344 344 353 60 55 47 41 41 38 37 30 23
154 161 162 160 166 188 175 180 185 169 179 182 174 168 167 169 164 162 166 158 157 149 142 133 140 130 129 126 116 116 113 107 104 107 108 106 105 101 91 92 89 80 75 74 68 63 62 62 59 55 53 48 43 41 41 39 34 29 26 21 19 17 14 13 12 10 17 22 13 2 355 352 355 351 339 8 15 36 41 42 32 29 27 25 11
163 170 162 160 172 184 183 183 180 184 177 186 189 177 175 173 175 167 172 167 154 157 149 145 151 147 143 138 130 122 119 121 121 125 125 122 109 94 88 86 86 83 80 78 76 75 72 71 67 63 59 55 50 45 43 41 38 34 29 27 23 20 17 16 15 14 16 15 6 358 350 352 355 348 339 350 358 14 64 51 31 22 16 13 358
165 165 166 162 172 188 185 183 180 184 180 182 181 182 181 177 175 176 178 175 163 165 163 159 159 155 157 155 144 138 142 134 136 134 130 112 102 98 92 89 89 90 87 85 84 84 83 80 77 73 70 66 60 54 48 43 40 36 33 31 28 26 24 23 21 22 18 11 5 360 351 358 359 352 334 351 353 69 75 67 35 17 13 8 5
163 171 167 164 180 187 179 182 180 182 179 182 179 177 177 175 174 173 175 177 175 168 175 172 176 168 164 159 159 148 146 141 141 139 119 110 105 102 100 96 92 91 89 88 88 87 87 85 83 81 78 74 68 62 56 51 46 40 38 35 32 29 27 26 25 21 19 14 7 6 352 360 359 333 351 359 4 56 47 37 12 6 28 22 14
168 168 172 176 184 181 178 180 181 182 180 180 176 174 174 175 174 171 171 171 164 163 161 161 159 155 156 154 149 144 141 143 141 130 116 113 111 107 105 102 99 95 92 90 89 89 89 87 86 85 82 77 73 68 63 59 53 49 45 39 36 33 28 28 29 20 18 15 16 7 0 357 354 348 9 5 359 11 38 30 23 17 20 25 19
168 172 176 179 184 184 186 179 180 181 179 179 176 173 174 174 171 171 171 169 165 164 162 160 157 157 154 153 151 146 145 143 132 124 120 116 113 111 108 105 101 98 96 94 92 90 88 87 86 83 79 75 72 69 67 64 60 56 49 45 40 35 31 32 29 24 20 15 17 11 5 358 347 357 12 23 25 25 28 26 22 20 18 19 16
165 172 175 175 175 196 199 176 182 182 181 180 179 178 176 174 172 171 171 170 167 164 163 160 157 156 155 153 149 147 141 135 131 128 126 122 118 116 113 110 106 102 98 95 92 89 88 87 84 80 76 73 70 68 67 64 61 57 53 48 43 38 33 30 31 26 20 17 10 12 6 356 342 6 11 19 27 33 33 32 30 27 24 23 20
163 170 171 172 177 189 198 180 178 184 182 181 180 178 177 175 173 173 172 170 166 163 162 159 156 155 153 149 144 141 139 136 133 131 128 125 121 118 115 113 109 104 100 97 95 90 88 85 81 78 75 73 69 67 65 62 59 56 53 50 45 42 40 32 30 25 21 17 8 6 3 350 356 13 14 19 22 24 23 22 24 24 21 17 14
160 164 165 173 178 184 182 183 182 184 184 184 179 179 178 176 174 174 172 169 166 165 161 156 154 152 151 149 146 142 139 136 133 130 128 125 122 116 113 112 110 106 104 103 98 95 91 87 84 81 77 74 71 68 65 62 58 54 49 47 45 42 41 43 33 27 20 16 9 7 355 345 359 12 16 16 20 19 19 17 17 20 19 14 12
159 160 163 176 182 184 177 182 188 191 191 188 181 179 179 177 176 174 172 170 166 162 159 157 155 154 152 149 146 142 138 134 131 129 127 124 120 115 112 112 110 106 103 100 96 93 89 86 83 80 76 72 70 67 64 61 57 53 49 44 42 40 39 39 36 28 17 17 13 1 350 336 1 10 15 19 18 18 18 18 18 16 14 13 11
169 167 177 177 181 184 180 184 191 189 190 186 177 176 178 177 176 173 171 167 165 163 161 158 156 154 151 148 143 141 137 133 130 127 126 124 120 118 115 114 110 107 103 98 93 89 85 82 79 75 72 69 66 65 62 59 57 55 51 46 41 38 35 36 35 22 19 17 12 356 343 357 6 11 14 16 18 18 17 16 16 16 13 10 9
180 189 183 177 191 182 185 185 185 180 182 175 174 181 177 176 171 170 169 167 166 163 160 158 156 153 147 144 144 141 136 132 128 124 122 123 124 120 119 116 114 110 106 101 95 91 86 82 77 73 68 66 64 61 59 56 54 52 48 47 44 39 36 31 28 22 19 10 9 360 337 4 6 11 13 16 17 16 15 13 13 13 11 7 6
197 199 195 200 186 185 189 188 182 183 177 172 175 178 179 178 173 170 169 167 167 163 160 155 150 143 138 128 118 117 117 119 118 119 122 120 110 109 116 117 116 113 109 105 99 94 90 86 83 78 73 68 63 59 57 56 54 49 45 40 40 41 39 31 26 24 18 9 9 347 354 7 7 9 13 15 16 16 14 12 11 10 9 8 5
216 215 203 198 194 188 190 185 189 182 178 173 174 178 186 177 172 168 167 167 167 163 158 145 137 133 127 126 119 115 117 112 106 109 106 110 111 110 114 115 112 110 107 103 98 94 89 84 81 78 73 66 56 49 45 47 46 45 42 41 38 33 30 32 28 22 23 3 5 335 4 6 8 8 11 13 17 17 14 11 9 7 7 7 6
202 210 218 203 193 198 190 187 186 189 179 176 173 175 188 172 168 166 166 166 163 153 141 136 133 133 136 130 129 131 128 126 125 120 115 110 110 110 111 111 109 105 102 98 93 87 85 83 80 77 72 64 58 49 36 32 33 35 33 35 34 30 24 24 23 18 19 2 4 342 6 5 7 5 8 11 15 17 13 11 10 8 6 6 6
210 212 213 205 200 189 189 192 191 184 181 178 173 174 181 164 171 162 162 160 154 137 139 136 135 144 141 140 138 133 132 127 126 127 125 115 109 107 104 100 97 97 98 93 89 86 83 81 80 76 68 58 50 49 46 40 28 27 28 29 31 24 21 23 19 14 10 356 360 352 5 4 5 4 5 8 13 15 14 12 12 10 8 7 8
211 204 202 194 194 197 197 194 188 183 180 181 173 176 175 172 173 168 161 157 147 145 143 140 147 152 153 151 146 143 133 133 129 115 102 92 90 85 87 86 83 76 71 65 71 79 80 81 81 72 59 52 49 42 43 38 35 27 27 28 26 20 24 21 18 7 1 356 347 354 1 2 3 3 4 6 11 13 14 15 13 12 12 11 14
204 179 182 201 201 199 191 196 188 185 183 180 177 181 174 170 181 178 165 161 155 152 152 151 157 160 161 157 156 145 136 125 117 110 106 106 97 88 78 78 77 74 77 80 73 69 65 64 62 65 65 73 66 48 52 46 35 30 29 22 22 20 18 18 13 10 1 354 346 354 357 359 2 3 2 4 9 11 15 17 17 16 18 17 17
172 188 205 199 201 199 195 191 187 190 190 183 183 176 163 179 184 183 170 170 163 162 160 162 163 168 167 163 152 140 136 130 129 128 123 119 111 105 97 95 92 97 92 103 94 94 92 106 113 115 114 109 97 88 63 67 50 37 30 25 23 21 19 13 11 7 359 353 346 353 354 356 359 2 3 5 9 10 16 19 19 22 21 19 18
197 211 198 202 196 199 196 187 194 191 195 186 177 175 184 183 181 183 172 177 170 165 171 171 173 170 172 170 156 155 147 144 140 139 134 127 122 123 121 119 123 124 127 124 130 138 142 142 142 131 132 110 92 84 78 67 62 53 36 34 27 26 21 16 10 6 356 351 345 349 351 354 357 360 3 5 8 12 17 21 20 25 24 23 22
208 216 201 198 193 199 192 189 196 191 193 186 181 185 184 181 187 186 188 176 168 177 174 175 169 175 176 178 164 158 155 152 151 146 147 131 136 134 131 124 127 135 141 134 136 148 151 152 143 134 124 109 94 78 71 64 54 51 43 30 26 27 22 17 12 4 355 351 346 343 348 350 353 356 1 3 8 14 17 22 23 27 28 26 24
215 211 203 198 202 192 188 196 194 195 190 182 191 188 184 185 186 191 190 180 179 179 174 167 175 177 178 175 163 156 155 153 156 156 145 144 142 143 144 144 139 147 141 151 147 151 149 155 144 129 114 95 80 62 57 52 43 39 39 25 22 21 19 15 10 1 358 350 345 339 346 346 348 352 358 1 10 15 20 22 25 28 28 28 25
215 206 199 208 196 185 192 197 195 191 187 181 194 187 188 189 194 195 189 181 185 176 167 175 176 173 181 181 174 164 167 165 160 157 155 156 154 149 146 152 152 156 148 151 170 152 151 140 119 97 89 78 67 48 55 44 32 27 25 21 19 16 18 12 4 359 348 349 344 340 343 343 344 348 352 358 12 19 21 22 26 26 27 26 25
200 211 208 206 193 186 199 197 194 188 181 191 191 194 186 195 194 193 186 187 178 170 177 174 174 182 181 176 173 167 159 159 160 161 156 155 156 155 158 156 155 169 162 156 161 148 132 110 104 93 81 75 65 46 47 40 23 19 11 13 4 8 18 14 4 354 350 345 346 344 337 340 341 343 345 351 11 19 23 25 23 21 22 23 24
202 215 209 191 189 199 197 194 192 185 185 193 191 193 194 195 192 189 190 185 171 179 178 176 181 183 177 177 174 169 161 163 161 164 162 161 162 162 160 158 169 169 159 153 136 120 104 95 84 78 71 71 59 44 37 42 23 10 358 5 358 8 11 8 3 353 343 344 345 343 340 333 336 339 342 346 1 9 19 22 18 18 19 21 22
216 213 195 185 201 196 194 196 188 187 190 192 192 194 192 191 188 194 188 179 178 177 183 185 181 179 176 177 176 170 170 166 169 167 166 165 160 159 163 171 170 165 156 147 127 115 100 90 73 70 59 53 53 32 29 48 29 359 356 355 359 4 5 5 358 354 350 342 345 338 335 337 335 337 340 346 355 3 13 17 13 15 20 22 18
211 198 182 203 200 193 192 186 189 192 195 192 190 191 192 190 191 191 186 179 182 183 189 184 178 176 176 178 175 176 171 167 163 166 163 163 165 168 169 172 174 167 152 144 136 137 120 108 103 83 69 70 70 37 33 22 5 346 357 348 2 360 359 359 360 351 344 347 337 338 335 338 342 340 336 342 353 2 10 13 14 18 20 18 13
197 195 199 208 186 191 184 191 191 194 192 194 192 193 188 188 187 188 188 184 182 188 186 179 179 179 173 178 178 178 174 170 170 165 169 168 168 172 178 180 169 160 151 154 137 130 125 127 127 105 92 75 71 52 49 38 3 353 345 349 351 349 6 1 352 359 358 343 341 339 339 338 340 340 337 345 353 358 9 15 21 21 18 13 6
203 205 207 187 192 192 189 192 188 193 194 194 193 191 189 187 186 187 184 183 183 189 186 185 180 170 176 179 181 179 175 174 172 167 167 176 174 177 181 168 166 152 148 141 131 136 131 118 114 128 105 71 68 38 28 26 1 344 333 349 348 357 3 3 2 358 352 345 350 346 345 345 345 345 359 0 3 359 6 15 18 19 16 11 6
205 202 198 192 197 192 190 191 190 193 193 192 190 189 184 185 186 187 186 181 187 191 184 172 172 177 180 181 182 180 177 176 175 174 169 175 176 172 171 168 161 155 149 148 137 142 135 122 96 95 115 127 106 103 35 16 351 323 317 352 360 6 13 9 4 357 349 4 353 352 349 351 347 2 6 7 5 0 357 9 16 17 15 11 8
206 203 200 193 196 190 192 195 195 192 190 188 188 185 184 180 182 182 181 186 191 187 179 170 182 184 178 185 180 179 179 178 176 174 174 175 169 166 165 167 162 155 149 146 146 139 126 130 119 95 121 124 123 116 86 343 319 313 336 2 358 19 16 23 22 8 19 3 358 356 345 346 9 14 12 11 4 355 356 357 7 13 14 9 8
203 203 199 200 192 191 193 196 189 187 187 183 180 176 168 170 163 165 176 185 187 186 175 184 188 181 188 180 176 181 180 178 176 174 171 170 167 168 168 171 162 155 149 144 143 146 138 138 133 124 112 128 134 150 156 187 193 330 343 355 359 4 22 79 83 37 22 12 358 1 14 17 17 16 12 9 355 354 354 2 7 9 4 4 7
201 194 195 192 193 190 191 192 192 183 176 173 169 172 168 174 175 165 181 196 187 183 190 194 182 190 186 178 182 183 179 177 177 174 171 170 170 174 170 167 164 157 158 158 165 167 162 147 154 141 132 100 60 124 70 147 100 53 11 357 32 2 23 99 89 79 43 43 30 24 24 2 31 9 13 353 351 354 7 7 8 4 4 358 1
198 190 192 194 192 192 183 192 187 177 175 174 178 176 177 175 182 192 197 190 192 188 189 193 191 193 183 183 183 183 176 175 176 171 177 174 173 166 163 169 167 168 171 178 170 167 165 157 148 132 131 105 32 13 4 73 71 13 7 7 5 6 32 64 110 71 44 27 44 29 6 23 27 23 356 350 9 10 9 4 0 0 359 356 353
205 193 195 197 197 189 189 190 176 181 185 184 181 182 185 185 183 192 193 190 184 185 195 193 195 187 184 185 185 178 176 178 175 179 176 173 169 172 174 175 172 174 170 155 161 165 156 158 154 90 37 127 94 349 339 63 28 85 51 340 352 355 21 60 97 357 19 17 42 29 354 31 25 7 0 10 7 5 0 357 357 356 348 348 348
196 196 201 194 192 190 195 182 184 183 187 183 178 189 189 190 189 189 187 185 196 200 190 184 172 182 189 187 181 178 176 178 176 179 176 179 177 172 180 171 173 164 158 167 173 170 174 171 178 143 106 56 97 2 4 43 133 96 117 81 354 16 338 7 343 334 14 346 61 28 350 43 20 9 356 7 359 355 351 354 350 346 336 340 344
202 206 198 195 192 195 188 185 186 186 184 187 189 188 182 176 167 124 146 133 162 149 143 145 176 177 195 185 184 181 180 178 178 179 178 179 176 180 168 172 176 176 171 168 175 176 173 177 163 154 136 110 53 10 8 8 118 124 39 79 190 107 7 342 336 303 21 53 77 33 6 42 15 1 13 356 335 342 342 347 340 328 326 328 343
204 202 195 192 192 194 190 187 184 186 187 184 181 166 144 125 113 90 97 89 77 133 151 187 193 194 181 188 193 179 180 182 178 180 179 180 178 174 175 177 174 179 173 176 180 183 181 178 169 158 161 144 156 141 333 8 342 204 153 107 55 32 216 239 357 288 341 0 24 348 48 37 15 12 5 317 324 329 335 335 321 317 312 326 336
212 209 194 196 191 190 184 183 181 183 184 181 175 166 170 164 156 158 167 178 183 178 194 200 188 192 198 168 165 186 183 181 180 181 181 174 179 178 175 172 178 178 184 184 173 161 181 181 190 172 155 173 139 138 125 290 341 6 65 132 163 173 169 219 109 267 327 1 316 307 162 296 154 23 319 299 304 310 322 316 308 300 305 319 329
219 190 192 193 190 182 181 181 181 181 179 177 173 169 171 177 181 183 183 186 194 207 204 184 185 188 163 177 184 180 185 180 183 182 182 180 176 176 176 180 178 178 176 167 182 191 186 186 175 176 173 144 134 134 158 176 52 10 39 58 73 80 121 125 192 71 334 318 2 320 304 288 224 186 307 279 271 286 292 295 292 291 297 306 328
197 177 185 182 184 181 178 182 181 180 178 172 176 178 178 180 184 191 193 199 202 204 187 182 162 163 177 181 176 185 184 186 181 184 182 179 176 176 177 177 178 182 177 186 189 185 171 179 178 175 148 165 161 146 162 173 157 181 123 88 84 77 75 83 125 153 159 237 305 320 306 317 315 286 297 265 256 273 281 286 289 293 290 294 309
180 187 189 187 183 177 176 176 180 177 178 177 179 184 184 184 187 189 196 206 202 183 158 157 165 169 178 178 180 182 184 189 187 183 183 181 178 179 177 178 180 182 183 182 187 180 183 175 173 171 174 170 166 152 148 179 172 161 144 98 100 98 93 92 125 126 150 165 268 226 264 311 262 264 255 227 267 267 260 285 284 282 278 287 291
193 185 179 170 172 169 175 176 181 179 177 180 183 187 189 185 190 196 199 197 184 161 162 171 172 172 184 185 183 181 186 187 189 186 183 182 180 177 179 183 184 179 179 184 178 181 185 188 186 177 171 167 160 160 171 170 178 165 167 151 139 121 90 98 143 150 173 183 228 235 288 321 325 253 231 269 275 255 285 283 284 276 277 272 268
186 173 171 173 168 171 174 179 184 177 179 183 182 189 190 191 198 198 199 193 184 169 167 179 176 178 191 188 187 190 184 189 183 189 186 182 183 181 183 185 179 177 179 178 187 184 185 184 176 167 172 168 165 159 152 166 161 166 168 170 169 171 172 171 183 181 160 167 224 254 167 160 211 300 316 51 317 302 287 288 279 275 271 273 264